| time (UTC) | temp F | wind direction | speed knots | gust knots | rain 1hr in | rain 24hr in | rain mn in | humidity % | barometer mb |
| 20260508100504 | 52 | 202 | 0.0 | 6.1 | 0.00 | 0.00 | 0.00 | 34 | 1018.1 |
| 20260508093504 | 51 | 273 | 0.0 | 6.1 | 0.00 | 0.00 | 0.00 | 34 | 1018.2 |
| 20260508093004 | 51 | 208 | 2.6 | 8.7 | 0.00 | 0.00 | 0.00 | 34 | 1018.3 |
| 20260508092004 | 50 | 247 | 0.9 | 7.8 | 0.00 | 0.00 | 0.00 | 34 | 1018.3 |
| 20260508091504 | 50 | 295 | 0.9 | 4.3 | 0.00 | 0.00 | 0.00 | 34 | 1018.3 |
| 20260508091004 | 50 | 297 | 0.9 | 6.1 | 0.00 | 0.00 | 0.00 | 34 | 1018.4 |
| 20260508090505 | 50 | 186 | 0.0 | 6.1 | 0.00 | 0.00 | 0.00 | 34 | 1018.4 |
| 20260508090004 | 49 | 202 | 1.7 | 7.8 | 0.00 | 0.00 | 0.00 | 37 | 1018.4 |
| 20260508085503 | 49 | 289 | 0.0 | 5.2 | 0.00 | 0.00 | 0.00 | 36 | 1018.4 |
| 20260508085004 | 49 | 223 | 1.7 | 6.1 | 0.00 | 0.00 | 0.00 | 36 | 1018.5 |
| 20260508084504 | 49 | 251 | 1.7 | 6.1 | 0.00 | 0.01 | 0.00 | 38 | 1018.5 |
| 20260508084003 | 48 | 214 | 0.9 | 2.6 | 0.00 | 0.01 | 0.00 | 36 | 1018.5 |
| 20260508083504 | 48 | 221 | 2.6 | 7.0 | 0.00 | 0.01 | 0.00 | 37 | 1018.5 |
| 20260508082003 | 47 | 282 | 1.7 | 8.7 | 0.00 | 0.01 | 0.00 | 40 | 1018.5 |
| 20260508081004 | 47 | 305 | 1.7 | 5.2 | 0.00 | 0.01 | 0.00 | 40 | 1018.5 |
| 20260508080504 | 47 | 219 | 0.0 | 7.0 | 0.00 | 0.01 | 0.00 | 45 | 1018.5 |
| 20260508080004 | 46 | 241 | 0.0 | 1.7 | 0.00 | 0.01 | 0.00 | 46 | 1018.5 |
| 20260508075503 | 46 | 273 | 2.6 | 7.8 | 0.00 | 0.01 | 0.00 | 46 | 1018.4 |
| 20260508075003 | 46 | 222 | 1.7 | 8.7 | 0.00 | 0.01 | 0.00 | 48 | 1018.4 |
| 20260508074504 | 46 | 214 | 0.9 | 6.1 | 0.00 | 0.01 | 0.00 | 47 | 1018.5 |
| 20260508074004 | 46 | 297 | 0.9 | 4.3 | 0.00 | 0.01 | 0.00 | 49 | 1018.4 |
| 20260508073504 | 45 | 229 | 1.7 | 7.8 | 0.00 | 0.01 | 0.00 | 50 | 1018.4 |
| 20260508072504 | 45 | 252 | 0.9 | 4.3 | 0.00 | 0.01 | 0.00 | 53 | 1018.4 |
| 20260508072004 | 44 | 208 | 1.7 | 6.1 | 0.00 | 0.01 | 0.00 | 53 | 1018.4 |
| 20260508071503 | 44 | 270 | 0.9 | 4.3 | 0.00 | 0.01 | 0.00 | 54 | 1018.4 |
| 20260508071004 | 44 | 203 | 0.9 | 5.2 | 0.00 | 0.01 | 0.00 | 56 | 1018.3 |
| 20260508070503 | 44 | 263 | 0.9 | 5.2 | 0.00 | 0.01 | 0.00 | 56 | 1018.2 |
| 20260508070004 | 43 | 201 | 0.9 | 5.2 | 0.00 | 0.01 | 0.00 | 58 | 1018.3 |
| 20260508065004 | 43 | 204 | 0.0 | 2.6 | 0.00 | 0.01 | 0.00 | 58 | 1018.1 |
| 20260508064504 | 43 | 254 | 0.9 | 2.6 | 0.00 | 0.01 | 0.00 | 59 | 1018.1 |
| 20260508064004 | 43 | 285 | 0.9 | 2.6 | 0.00 | 0.01 | 0.00 | 59 | 1018.1 |
| 20260508063504 | 42 | 235 | 0.0 | 2.6 | 0.00 | 0.01 | 0.00 | 61 | 1018.1 |
| 20260508063004 | 42 | 229 | 0.9 | 2.6 | 0.00 | 0.01 | 0.00 | 62 | 1018.1 |
| 20260508062504 | 42 | 234 | 0.0 | 2.6 | 0.00 | 0.01 | 0.00 | 63 | 1018.0 |
| 20260508062004 | 41 | 207 | 0.9 | 1.7 | 0.00 | 0.01 | 0.00 | 63 | 1018.0 |
| 20260508061504 | 41 | 289 | 0.0 | 1.7 | 0.00 | 0.01 | 0.00 | 64 | 1018.0 |
| 20260508060504 | 40 | 143 | 0.0 | 0.0 | 0.00 | 0.01 | 0.00 | 69 | 1017.9 |
| 20260508060004 | 40 | 143 | 0.0 | 0.0 | 0.00 | 0.01 | 0.00 | 69 | 1017.8 |
| 20260508055505 | 40 | 143 | 0.0 | 0.0 | 0.00 | 0.01 | 0.00 | 69 | 1017.8 |
| 20260508055004 | 39 | 143 | 0.0 | 0.0 | 0.00 | 0.01 | 0.00 | 70 | 1017.7 |
| 20260508054503 | 39 | 200 | 0.0 | 0.0 | 0.00 | 0.01 | 0.00 | 70 | 1017.7 |
| 20260508054004 | 39 | 202 | 0.0 | 0.0 | 0.00 | 0.01 | 0.00 | 71 | 1017.6 |
| 20260508053504 | 38 | 230 | 0.0 | 0.0 | 0.00 | 0.01 | 0.00 | 73 | 1017.6 |
| 20260508053004 | 38 | 230 | 0.0 | 0.0 | 0.00 | 0.01 | 0.00 | 74 | 1017.7 |
| 20260508052003 | 36 | 230 | 0.0 | 0.0 | 0.00 | 0.01 | 0.00 | 78 | 1017.6 |
| 20260508051504 | 35 | 230 | 0.0 | 0.0 | 0.00 | 0.01 | 0.00 | 80 | 1017.6 |
| 20260508051004 | 34 | 236 | 0.0 | 0.0 | 0.00 | 0.01 | 0.00 | 82 | 1017.6 |
| 20260508050504 | 34 | 303 | 0.0 | 0.0 | 0.00 | 0.01 | 0.00 | 84 | 1017.6 |
| 20260508050004 | 33 | 303 | 0.0 | 0.0 | 0.00 | 0.01 | 0.00 | 86 | 1017.6 |
| 20260508045004 | 31 | 302 | 0.0 | 0.0 | 0.00 | 0.01 | 0.00 | 88 | 1017.5 |
| 20260508044504 | 31 | 302 | 0.0 | 0.0 | 0.00 | 0.01 | 0.00 | 89 | 1017.5 |
| 20260508044004 | 30 | 302 | 0.0 | 0.0 | 0.00 | 0.01 | 0.00 | 90 | 1017.5 |
| 20260508043504 | 30 | 303 | 0.0 | 0.0 | 0.00 | 0.01 | 0.00 | 90 | 1017.4 |
| 20260508043004 | 29 | 302 | 0.0 | 0.0 | 0.00 | 0.01 | 0.00 | 89 | 1017.4 |
| 20260508042005 | 28 | 302 | 0.0 | 0.0 | 0.00 | 0.01 | 0.00 | 88 | 1017.3 |
| 20260508041505 | 27 | 302 | 0.0 | 0.0 | 0.00 | 0.01 | 0.00 | 88 | 1017.4 |
| 20260508041004 | 27 | 303 | 0.0 | 0.0 | 0.00 | 0.01 | 0.00 | 88 | 1017.3 |
| 20260508035504 | 25 | 302 | 0.0 | 0.0 | 0.00 | 0.01 | 0.00 | 88 | 1017.3 |
| 20260508035004 | 25 | 303 | 0.0 | 0.0 | 0.00 | 0.01 | 0.00 | 88 | 1017.2 |
| 20260508034504 | 24 | 302 | 0.0 | 0.0 | 0.00 | 0.01 | 0.00 | 89 | 1017.2 |
| 20260508033504 | 23 | 302 | 0.0 | 0.0 | 0.00 | 0.01 | 0.00 | 89 | 1017.2 |
| 20260508033004 | 23 | 302 | 0.0 | 0.0 | 0.00 | 0.01 | 0.00 | 89 | 1017.1 |
| 20260508032503 | 23 | 302 | 0.0 | 0.0 | 0.00 | 0.01 | 0.00 | 89 | 1017.1 |
| 20260508032004 | 23 | 302 | 0.0 | 0.0 | 0.00 | 0.01 | 0.00 | 89 | 1017.1 |
| 20260508031504 | 22 | 302 | 0.0 | 0.0 | 0.00 | 0.01 | 0.00 | 89 | 1017.1 |
| 20260508030504 | 22 | 302 | 0.0 | 0.0 | 0.00 | 0.01 | 0.00 | 89 | 1017.0 |
| 20260508030004 | 22 | 302 | 0.0 | 0.0 | 0.00 | 0.01 | 0.00 | 90 | 1017.0 |
| 20260508025504 | 22 | 302 | 0.0 | 0.0 | 0.00 | 0.01 | 0.00 | 90 | 1017.0 |
| 20260508025004 | 22 | 302 | 0.0 | 0.0 | 0.00 | 0.01 | 0.00 | 90 | 1016.9 |
| 20260508024504 | 21 | 302 | 0.0 | 0.0 | 0.00 | 0.01 | 0.00 | 90 | 1016.9 |
| 20260508024004 | 21 | 302 | 0.0 | 0.0 | 0.00 | 0.01 | 0.00 | 90 | 1016.9 |
| 20260508023004 | 21 | 302 | 0.0 | 0.0 | 0.00 | 0.01 | 0.00 | 90 | 1016.7 |
| 20260508022503 | 21 | 302 | 0.0 | 0.0 | 0.00 | 0.01 | 0.00 | 90 | 1016.7 |
| 20260508022004 | 21 | 302 | 0.0 | 0.0 | 0.00 | 0.01 | 0.00 | 90 | 1016.6 |
| 20260508021004 | 21 | 302 | 0.0 | 0.0 | 0.00 | 0.01 | 0.00 | 90 | 1016.6 |
| 20260508020503 | 21 | 302 | 0.0 | 0.0 | 0.00 | 0.01 | 0.00 | 90 | 1016.6 |
| 20260508020004 | 22 | 302 | 0.0 | 0.0 | 0.00 | 0.01 | 0.00 | 90 | 1016.5 |
| 20260508015504 | 22 | 302 | 0.0 | 0.0 | 0.00 | 0.01 | 0.00 | 90 | 1016.5 |
| 20260508015004 | 22 | 302 | 0.0 | 0.0 | 0.00 | 0.01 | 0.00 | 90 | 1016.5 |
| 20260508014004 | 22 | 302 | 0.0 | 0.0 | 0.00 | 0.01 | 0.00 | 90 | 1016.4 |
| 20260508013504 | 22 | 302 | 0.0 | 0.0 | 0.00 | 0.01 | 0.00 | 90 | 1016.4 |
| 20260508013004 | 22 | 302 | 0.0 | 0.0 | 0.00 | 0.01 | 0.00 | 90 | 1016.3 |
| 20260508012504 | 22 | 302 | 0.0 | 0.0 | 0.00 | 0.01 | 0.00 | 90 | 1016.3 |
| 20260508012004 | 22 | 302 | 0.0 | 0.0 | 0.00 | 0.01 | 0.00 | 90 | 1016.2 |
| 20260508011504 | 22 | 302 | 0.0 | 0.0 | 0.00 | 0.01 | 0.00 | 89 | 1016.2 |
| 20260508010504 | 22 | 302 | 0.0 | 0.0 | 0.00 | 0.01 | 0.00 | 90 | 1016.1 |
| 20260508010004 | 22 | 302 | 0.0 | 0.0 | 0.00 | 0.01 | 0.00 | 90 | 1016.1 |
| 20260508005503 | 22 | 302 | 0.0 | 0.0 | 0.00 | 0.01 | 0.00 | 90 | 1016.1 |
| 20260508005003 | 22 | 302 | 0.0 | 0.0 | 0.00 | 0.01 | 0.00 | 89 | 1016.0 |
| 20260508004503 | 22 | 302 | 0.0 | 0.0 | 0.00 | 0.01 | 0.00 | 89 | 1015.9 |
| 20260508004002 | 22 | 302 | 0.0 | 0.0 | 0.00 | 0.01 | 0.00 | 89 | 1015.9 |
| 20260508003503 | 23 | 302 | 0.0 | 0.0 | 0.00 | 0.01 | 0.00 | 89 | 1015.8 |
| 20260508003003 | 23 | 302 | 0.0 | 0.0 | 0.00 | 0.01 | 0.00 | 89 | 1015.8 |
| 20260508002502 | 23 | 302 | 0.0 | 0.0 | 0.00 | 0.01 | 0.00 | 89 | 1015.8 |
| 20260508002003 | 23 | 302 | 0.0 | 0.0 | 0.00 | 0.01 | 0.00 | 89 | 1015.7 |
| 20260508001503 | 23 | 302 | 0.0 | 0.0 | 0.00 | 0.01 | 0.00 | 89 | 1015.7 |
| 20260508001003 | 23 | 302 | 0.0 | 0.0 | 0.00 | 0.01 | 0.00 | 89 | 1015.7 |
| 20260508000003 | 23 | 302 | 0.0 | 0.0 | 0.00 | 0.01 | 0.00 | 89 | 1015.6 |
| 20260507235504 | 23 | 302 | 0.0 | 0.0 | 0.00 | 0.01 | 0.00 | 89 | 1015.5 |
| 20260507235003 | 23 | 302 | 0.0 | 0.0 | 0.00 | 0.01 | 0.00 | 89 | 1015.5 |
| 20260507234505 | 23 | 302 | 0.0 | 0.0 | 0.00 | 0.01 | 0.00 | 89 | 1015.4 |
| 20260507234004 | 23 | 302 | 0.0 | 0.0 | 0.00 | 0.01 | 0.00 | 89 | 1015.4 |
| 20260507233505 | 24 | 302 | 0.0 | 0.0 | 0.00 | 0.01 | 0.00 | 89 | 1015.3 |
| 20260507233003 | 24 | 302 | 0.0 | 0.0 | 0.00 | 0.01 | 0.00 | 89 | 1015.3 |
| 20260507232003 | 24 | 302 | 0.0 | 0.0 | 0.00 | 0.01 | 0.00 | 88 | 1015.2 |
| 20260507231503 | 24 | 302 | 0.0 | 0.0 | 0.00 | 0.01 | 0.00 | 88 | 1015.2 |
| 20260507231003 | 24 | 302 | 0.0 | 0.0 | 0.00 | 0.01 | 0.00 | 88 | 1015.2 |
| 20260507230502 | 24 | 302 | 0.0 | 0.0 | 0.00 | 0.01 | 0.00 | 88 | 1015.0 |
| 20260507230003 | 24 | 302 | 0.0 | 0.0 | 0.00 | 0.01 | 0.00 | 88 | 1015.0 |
| 20260507225503 | 24 | 302 | 0.0 | 0.0 | 0.00 | 0.01 | 0.00 | 88 | 1015.0 |
| 20260507225003 | 25 | 302 | 0.0 | 0.0 | 0.00 | 0.01 | 0.00 | 88 | 1014.9 |
| 20260507224504 | 25 | 302 | 0.0 | 0.0 | 0.00 | 0.01 | 0.00 | 88 | 1014.9 |
| 20260507224003 | 25 | 302 | 0.0 | 0.0 | 0.00 | 0.01 | 0.00 | 88 | 1014.8 |
| 20260507222502 | 25 | 302 | 0.0 | 0.0 | 0.00 | 0.01 | 0.00 | 87 | 1014.7 |
| 20260507222003 | 25 | 302 | 0.0 | 0.0 | 0.00 | 0.01 | 0.00 | 87 | 1014.6 |
| 20260507221003 | 26 | 302 | 0.0 | 0.0 | 0.00 | 0.01 | 0.00 | 87 | 1014.6 |
| 20260507220003 | 26 | 302 | 0.0 | 0.0 | 0.00 | 0.01 | 0.00 | 86 | 1014.5 |
| 20260507215003 | 26 | 302 | 0.0 | 0.0 | 0.00 | 0.01 | 0.01 | 85 | 1014.4 |
| 20260507214002 | 26 | 302 | 0.0 | 0.0 | 0.00 | 0.01 | 0.01 | 84 | 1014.3 |
| 20260507213003 | 27 | 302 | 0.0 | 0.0 | 0.00 | 0.01 | 0.01 | 83 | 1014.2 |
| 20260507212503 | 27 | 302 | 0.0 | 0.0 | 0.00 | 0.01 | 0.01 | 83 | 1014.2 |
| 20260507212003 | 27 | 302 | 0.0 | 0.0 | 0.00 | 0.01 | 0.01 | 82 | 1014.1 |
| 20260507211503 | 27 | 302 | 0.0 | 0.0 | 0.00 | 0.01 | 0.01 | 81 | 1014.0 |
| 20260507211002 | 27 | 302 | 0.0 | 0.0 | 0.00 | 0.01 | 0.01 | 80 | 1014.0 |
| 20260507210503 | 28 | 302 | 0.0 | 0.0 | 0.00 | 0.01 | 0.01 | 79 | 1013.9 |
| 20260507210004 | 28 | 302 | 0.0 | 0.0 | 0.00 | 0.01 | 0.01 | 78 | 1013.8 |
| 20260507205502 | 28 | 302 | 0.0 | 0.0 | 0.00 | 0.01 | 0.01 | 78 | 1013.8 |
| 20260507205003 | 28 | 302 | 0.0 | 0.0 | 0.00 | 0.01 | 0.01 | 78 | 1013.7 |
| 20260507204503 | 28 | 302 | 0.0 | 0.0 | 0.00 | 0.01 | 0.01 | 77 | 1013.6 |
| 20260507203503 | 29 | 302 | 0.0 | 0.0 | 0.00 | 0.01 | 0.01 | 76 | 1013.5 |
| 20260507203003 | 29 | 302 | 0.0 | 0.0 | 0.00 | 0.01 | 0.01 | 76 | 1013.5 |
| 20260507202503 | 29 | 302 | 0.0 | 0.0 | 0.00 | 0.01 | 0.01 | 75 | 1013.4 |
| 20260507201503 | 30 | 302 | 0.0 | 0.0 | 0.00 | 0.01 | 0.01 | 73 | 1013.3 |
| 20260507201003 | 30 | 302 | 0.0 | 0.0 | 0.00 | 0.01 | 0.01 | 72 | 1013.3 |
| 20260507200003 | 31 | 302 | 0.0 | 0.0 | 0.00 | 0.01 | 0.01 | 70 | 1013.1 |
| 20260507195003 | 32 | 302 | 0.0 | 0.0 | 0.00 | 0.01 | 0.01 | 68 | 1013.0 |
| 20260507194503 | 32 | 302 | 0.0 | 0.0 | 0.00 | 0.01 | 0.01 | 68 | 1012.9 |
| 20260507193004 | 34 | 303 | 0.0 | 0.0 | 0.00 | 0.01 | 0.01 | 64 | 1012.7 |
| 20260507192503 | 34 | 303 | 0.0 | 0.0 | 0.00 | 0.01 | 0.01 | 63 | 1012.6 |
| 20260507192002 | 35 | 303 | 0.0 | 0.0 | 0.00 | 0.01 | 0.01 | 61 | 1012.6 |
| 20260507191503 | 36 | 304 | 0.0 | 0.0 | 0.00 | 0.01 | 0.01 | 60 | 1012.5 |
| 20260507190503 | 38 | 304 | 0.0 | 0.0 | 0.00 | 0.01 | 0.01 | 56 | 1012.4 |
| 20260507190004 | 39 | 304 | 0.0 | 0.0 | 0.00 | 0.01 | 0.01 | 53 | 1012.3 |
| 20260507185503 | 40 | 304 | 0.0 | 0.0 | 0.00 | 0.01 | 0.01 | 52 | 1012.3 |
| 20260507184503 | 42 | 304 | 0.0 | 0.0 | 0.00 | 0.01 | 0.01 | 49 | 1012.1 |
| 20260507184003 | 42 | 304 | 0.0 | 0.0 | 0.00 | 0.01 | 0.01 | 47 | 1012.1 |
| 20260507183503 | 42 | 304 | 0.0 | 0.0 | 0.00 | 0.01 | 0.01 | 48 | 1012.0 |
| 20260507182503 | 42 | 306 | 0.0 | 0.0 | 0.00 | 0.01 | 0.01 | 47 | 1011.9 |
| 20260507182003 | 42 | 313 | 0.0 | 0.0 | 0.00 | 0.01 | 0.01 | 46 | 1011.8 |
| 20260507181503 | 42 | 292 | 0.0 | 0.0 | 0.00 | 0.02 | 0.01 | 47 | 1011.8 |
| 20260507180503 | 41 | 286 | 0.0 | 0.0 | 0.00 | 0.02 | 0.01 | 48 | 1011.7 |
| 20260507180003 | 41 | 286 | 0.0 | 0.0 | 0.00 | 0.02 | 0.01 | 48 | 1011.6 |
| 20260507175503 | 42 | 286 | 0.0 | 0.0 | 0.00 | 0.02 | 0.01 | 48 | 1011.6 |
| 20260507175003 | 42 | 286 | 0.0 | 0.0 | 0.00 | 0.02 | 0.01 | 46 | 1011.5 |
| 20260507174003 | 43 | 286 | 0.0 | 0.0 | 0.00 | 0.02 | 0.01 | 45 | 1011.3 |
| 20260507173502 | 43 | 286 | 0.0 | 0.0 | 0.00 | 0.02 | 0.01 | 46 | 1011.3 |
| 20260507173004 | 43 | 286 | 0.0 | 0.0 | 0.00 | 0.02 | 0.01 | 44 | 1011.2 |
| 20260507172503 | 44 | 286 | 0.0 | 0.0 | 0.00 | 0.02 | 0.01 | 44 | 1011.2 |
| 20260507172003 | 44 | 286 | 0.0 | 0.0 | 0.00 | 0.02 | 0.01 | 42 | 1011.2 |
| 20260507171003 | 45 | 283 | 0.0 | 0.9 | 0.00 | 0.02 | 0.01 | 40 | 1011.0 |
| 20260507170503 | 46 | 282 | 0.9 | 5.2 | 0.00 | 0.02 | 0.01 | 38 | 1011.0 |
| 20260507165003 | 47 | 288 | 0.9 | 7.0 | 0.00 | 0.02 | 0.01 | 38 | 1010.8 |
| 20260507164504 | 46 | 303 | 0.0 | 0.9 | 0.00 | 0.02 | 0.01 | 40 | 1010.7 |
| 20260507163503 | 46 | 322 | 3.5 | 8.7 | 0.00 | 0.02 | 0.01 | 40 | 1010.7 |
| 20260507163003 | 46 | 294 | 0.0 | 0.9 | 0.00 | 0.02 | 0.01 | 40 | 1010.6 |
| 20260507162503 | 47 | 297 | 0.0 | 0.9 | 0.00 | 0.02 | 0.01 | 39 | 1010.6 |
| 20260507162003 | 47 | 320 | 0.0 | 0.9 | 0.00 | 0.02 | 0.01 | 40 | 1010.5 |
| 20260507161503 | 47 | 327 | 0.0 | 0.9 | 0.00 | 0.02 | 0.01 | 39 | 1010.5 |
| 20260507160503 | 47 | 330 | 4.3 | 7.8 | 0.00 | 0.02 | 0.01 | 38 | 1010.4 |
| 20260507160003 | 47 | 293 | 4.3 | 8.7 | 0.00 | 0.02 | 0.01 | 38 | 1010.3 |
| 20260507155503 | 47 | 309 | 1.7 | 7.0 | 0.00 | 0.02 | 0.01 | 40 | 1010.3 |
| 20260507155003 | 46 | 312 | 0.0 | 4.3 | 0.00 | 0.02 | 0.01 | 40 | 1010.3 |
| 20260507154503 | 46 | 302 | 4.3 | 7.0 | 0.00 | 0.02 | 0.01 | 39 | 1010.2 |
| 20260507154003 | 46 | 318 | 1.7 | 10.4 | 0.00 | 0.02 | 0.01 | 39 | 1010.2 |
| 20260507153504 | 46 | 314 | 0.9 | 7.8 | 0.00 | 0.02 | 0.01 | 39 | 1010.2 |
| 20260507153003 | 47 | 304 | 3.5 | 7.8 | 0.00 | 0.02 | 0.01 | 37 | 1010.1 |
| 20260507152503 | 47 | 308 | 3.5 | 7.0 | 0.00 | 0.02 | 0.01 | 36 | 1010.1 |
| 20260507152003 | 47 | 289 | 4.3 | 11.3 | 0.00 | 0.02 | 0.01 | 37 | 1010.0 |
| 20260507151503 | 47 | 302 | 6.1 | 10.4 | 0.00 | 0.02 | 0.01 | 36 | 1010.0 |
| 20260507150503 | 46 | 327 | 0.0 | 0.9 | 0.00 | 0.02 | 0.01 | 40 | 1009.9 |
| 20260507150002 | 46 | 325 | 0.0 | 0.0 | 0.00 | 0.02 | 0.01 | 40 | 1009.8 |
| 20260507145503 | 46 | 324 | 0.0 | 0.0 | 0.00 | 0.03 | 0.01 | 41 | 1009.8 |
| 20260507145003 | 46 | 324 | 0.0 | 4.3 | 0.00 | 0.03 | 0.01 | 41 | 1009.9 |
| 20260507144503 | 46 | 348 | 0.9 | 4.3 | 0.00 | 0.03 | 0.01 | 43 | 1009.9 |
| 20260507144002 | 45 | 112 | 0.0 | 0.0 | 0.00 | 0.03 | 0.01 | 48 | 1009.9 |
| 20260507143503 | 46 | 112 | 0.0 | 0.0 | 0.00 | 0.03 | 0.01 | 50 | 1009.9 |
| 20260507143003 | 46 | 81 | 0.0 | 0.9 | 0.00 | 0.03 | 0.01 | 49 | 1009.8 |
| 20260507142003 | 47 | 36 | 4.3 | 10.4 | 0.00 | 0.03 | 0.01 | 48 | 1009.7 |
| 20260507141504 | 47 | 57 | 5.2 | 10.4 | 0.00 | 0.03 | 0.01 | 45 | 1009.7 |
| 20260507141003 | 47 | 334 | 7.0 | 13.0 | 0.00 | 0.03 | 0.01 | 43 | 1009.7 |
| 20260507140003 | 45 | 196 | 0.0 | 0.0 | 0.00 | 0.03 | 0.01 | 48 | 1009.5 |
| 20260507135503 | 44 | 196 | 0.0 | 0.0 | 0.00 | 0.03 | 0.01 | 52 | 1009.5 |
| 20260507135003 | 44 | 196 | 0.0 | 0.0 | 0.00 | 0.03 | 0.01 | 52 | 1009.5 |
| 20260507134003 | 44 | 196 | 0.0 | 0.0 | 0.00 | 0.03 | 0.01 | 52 | 1009.5 |
| 20260507133503 | 44 | 196 | 1.7 | 4.3 | 0.00 | 0.03 | 0.01 | 52 | 1009.5 |
| 20260507132503 | 44 | 198 | 0.0 | 0.0 | 0.00 | 0.03 | 0.01 | 52 | 1009.4 |
| 20260507132003 | 44 | 198 | 0.0 | 0.0 | 0.00 | 0.03 | 0.01 | 51 | 1009.3 |
| 20260507131003 | 44 | 214 | 1.7 | 6.1 | 0.00 | 0.03 | 0.01 | 51 | 1009.4 |
| 20260507130503 | 44 | 210 | 0.0 | 0.0 | 0.00 | 0.03 | 0.01 | 51 | 1009.4 |
| 20260507130003 | 44 | 210 | 0.0 | 0.0 | 0.00 | 0.03 | 0.01 | 50 | 1009.4 |
| 20260507125503 | 44 | 210 | 0.0 | 0.0 | 0.00 | 0.03 | 0.01 | 50 | 1009.3 |
| 20260507125003 | 45 | 212 | 0.0 | 0.0 | 0.00 | 0.03 | 0.01 | 51 | 1009.3 |
| 20260507124503 | 45 | 212 | 0.9 | 2.6 | 0.00 | 0.03 | 0.01 | 52 | 1009.3 |
| 20260507124003 | 45 | 186 | 0.0 | 5.2 | 0.00 | 0.03 | 0.01 | 54 | 1009.4 |
| 20260507122503 | 43 | 213 | 0.0 | 4.3 | 0.00 | 0.03 | 0.01 | 56 | 1009.2 |
| 20260507122004 | 43 | 215 | 0.0 | 0.0 | 0.00 | 0.03 | 0.01 | 56 | 1009.2 |
| 20260507121503 | 43 | 207 | 0.0 | 0.0 | 0.00 | 0.03 | 0.01 | 56 | 1009.2 |
| 20260507121003 | 43 | 213 | 0.0 | 0.0 | 0.00 | 0.03 | 0.01 | 55 | 1009.2 |
| 20260507120003 | 44 | 234 | 0.0 | 0.0 | 0.00 | 0.03 | 0.01 | 56 | 1009.2 |
| 20260507115003 | 44 | 314 | 0.0 | 0.0 | 0.00 | 0.03 | 0.01 | 51 | 1009.1 |
| 20260507114503 | 45 | 317 | 0.0 | 0.0 | 0.00 | 0.03 | 0.01 | 49 | 1009.1 |
| 20260507114003 | 45 | 317 | 0.0 | 0.0 | 0.00 | 0.03 | 0.01 | 50 | 1009.1 |
| 20260507113503 | 44 | 317 | 0.0 | 0.0 | 0.00 | 0.03 | 0.01 | 52 | 1009.0 |
| 20260507112003 | 43 | 316 | 0.0 | 0.0 | 0.00 | 0.03 | 0.01 | 52 | 1009.0 |
| 20260507111503 | 43 | 342 | 0.0 | 6.1 | 0.00 | 0.03 | 0.01 | 53 | 1009.0 |
| 20260507110503 | 43 | 236 | 0.0 | 0.0 | 0.00 | 0.03 | 0.01 | 51 | 1008.9 |
| 20260507110003 | 43 | 236 | 0.0 | 0.0 | 0.00 | 0.03 | 0.01 | 50 | 1008.9 |
| 20260507105003 | 46 | 224 | 2.6 | 10.4 | 0.00 | 0.03 | 0.01 | 49 | 1008.9 |
| 20260507104503 | 48 | 289 | 1.7 | 11.3 | 0.00 | 0.03 | 0.01 | 46 | 1008.8 |
| 20260507104004 | 49 | 322 | 1.7 | 11.3 | 0.00 | 0.03 | 0.01 | 44 | 1008.7 |
| 20260507103503 | 48 | 276 | 0.9 | 5.2 | 0.00 | 0.03 | 0.01 | 43 | 1008.6 |
| 20260507103004 | 48 | 296 | 0.9 | 6.1 | 0.00 | 0.03 | 0.01 | 43 | 1008.5 |
| 20260507102502 | 47 | 66 | 0.0 | 1.7 | 0.00 | 0.03 | 0.01 | 45 | 1008.5 |
| 20260507102003 | 46 | 188 | 0.0 | 0.0 | 0.00 | 0.03 | 0.01 | 46 | 1008.5 |
| 20260507101503 | 46 | 264 | 0.0 | 4.3 | 0.00 | 0.03 | 0.01 | 47 | 1008.6 |
| 20260507101003 | 46 | 300 | 5.2 | 7.8 | 0.00 | 0.03 | 0.01 | 47 | 1008.6 |